Orbital Elements at Epoch 2459200.5 (2020-Dec-17.0) TDB
Reference: JPL 13 (heliocentric ecliptic J2000)
Element | Value | Uncertainty (1-sigma) | Units |
e | .228805579193414 | 4.6809e-08 | |
a | 2.575954839990934 | 1.8116e-08 | au |
q | 1.98656200085073 | 1.185e-07 | au |
i | 3.31800877890165 | 7.775e-06 | deg |
node | 327.2042495508452 | 0.00014708 | deg |
peri | 325.2202026530523 | 0.00014892 | deg |
M | 243.8567457963773 | 2.6226e-05 | deg |
tp | 2459687.688786710624 (2022-Apr-18.18878671) | 0.00011206 | TDB |
period | 1510.100301721646 4.13 | 1.5931e-05 4.362e-08 | d yr |
n | .2383947606589898 | 2.5149e-09 | deg/d |
Q | 3.165347679131137 | 2.2262e-08 | au |
|
| | Orbit Determination Parameters
Additional Information
|